Hourly Data Report for October 04, 2017

All times are specified in Local Standard Time (LST). Add 1 hour to adjust for Daylight Saving Time where and when it is observed.

CARIBOU POINT (AUT)
NOVA SCOTIA

45°46'00.000" N
62°41'00.000" W
2.40 m
8200774
71415
WBK

Download Data

Hourly Data (October 2017)
Hourly Data Report for October 4, 2017
Temp Definition
°C
Dew Point Temp Definition
°C
Rel Hum Definition
%
Wind Dir Definition
10's deg

Wind Spd Definition
km/h
Visibility Definition
km
Stn Press Definition
kPa
Hmdx Definition


Wind Chill Definition


Weather Definition


TIME
00:00 7.8 5.9 88 22 14   102.85     LegendNANA
01:00 8.1 6.1 87 21 9   102.77     LegendNANA
02:00 7.7 5.6 87 22 11   102.68     LegendNANA
03:00 7.8 5.9 88 22 14   102.59     LegendNANA
04:00 8.0 6.3 89 23 12   102.56     LegendNANA
05:00 8.9 7.4 90 22 11   102.42     LegendNANA
06:00 9.1 7.5 90 21 10   102.37     LegendNANA
07:00 9.6 7.8 89 23 7   102.32     LegendNANA
08:00 11.7 8.9 83 22 8   102.25     LegendNANA
09:00 13.6 8.6 72   0   102.22     LegendNANA
10:00 16.2 9.7 65 22 9   102.13     LegendNANA
11:00 17.1 10.3 64 24 16   102.08     LegendNANA
12:00 18.6 11.3 62 24 14   101.97     LegendNANA
13:00 20.3 11.2 56 24 12   101.86     LegendNANA
14:00 20.9 10.5 52 24 16   101.77     LegendNANA
15:00 20.8 10.8 53 24 12   101.71     LegendNANA
16:00 19.9 10.8 56 24 13   101.67     LegendNANA
17:00 19.1 11.0 59 24 10   101.60     LegendNANA
18:00 17.7 11.0 65 24 10   101.51     LegendNANA
19:00 16.1 11.4 74 21 6   101.45     LegendNANA
20:00 15.9 11.8 77 23 11   101.37     LegendNANA
21:00 15.8 11.6 76 25 7   101.35     LegendNANA
22:00 15.3 11.7 79 22 2   101.30     LegendNANA
23:00 14.9 11.1 78 23 4   101.22     LegendNANA

Notes on Data Quality.

Legend

  • E = Estimated
  • M = Missing
  • NA = Not Available
  • ‡ = Partner data that is not subject to review by the National Climate Archives
Date modified: